Back to catalog

FREGAT DEB

AliveUNKNOWN
NORAD 46411·DEBRIS·🇷🇺 Russia

Launched Jul 18, 2011 from Baikonur Cosmodrome

Loading…

Next Passes (next 24 hours)

TLE

FreshSource: Space-Track

Epoch: Sep 14, 2026, 08:20 UTC

1 46411U 11037LS  26257.34723824  .00004584  00000-0  12927-2 0  9997
2 46411  51.4845  12.5855 1518474 337.7427  16.3719 11.96430652260275

Track FREGAT DEB in real time with AllMySat

Download on the App Store